INTELSAT 35E (IS-35E)

Last updated on Mon Oct 20 2025 00:02:49 GMT+0000 (Coordinated Universal Time)

1 42818U 17041A 25292.26047052 .00000000 00000+0 00000+0 0 9990 2 42818 0.0178 219.3969 0002622 6.6052 221.2474 1.00268361 30395
UTC large
Height (km)
Speed (km/s)
/
Latitude / Longitude
Inclination (degrees)
Orbital Period (minutes)
Azimuth
Elevation
Range (km)
Doppler Factor

Next 0 passes for location: London (51.5072 / 0.1276)

Sorry there are no passes over London.